GW1200 Weather Reports


time (UTC)temp
C
wind
direction
speed
KPH
gust
KPH
rain 1hr
cm
rain 24hr
cm
rain mn
cm
humidity
%
barometer
mb
20260504235134 24 250 0.0 1.6 0.00 0.00 0.00 48 4247.4
20260504234129 24 205 4.8 4.8 0.00 0.00 0.00 46 4247.6
20260504233126 25 304 3.2 8.0 0.00 0.00 0.00 46 4247.4
20260504232121 25 253 4.8 4.8 0.00 0.00 0.00 47 4247.5
20260504231120 25 297 1.6 3.2 0.00 0.00 0.00 46 4247.4
20260504230115 26 201 4.8 4.8 0.00 0.00 0.00 44 4247.4
20260504225115 26 217 3.2 3.2 0.00 0.00 0.00 46 4247.6
20260504224114 26 333 3.2 8.0 0.00 0.00 0.00 45 4247.5
20260504223113 26 355 1.6 1.6 0.00 0.00 0.00 45 4247.7
20260504222113 26 246 8.0 9.7 0.00 0.00 0.00 44 4247.8
20260504221113 27 247 6.4 8.0 0.00 0.00 0.00 42 4247.6
20260504220113 26 121 9.7 12.9 0.00 0.00 0.00 42 4247.7
20260504215113 27 285 4.8 8.0 0.00 0.00 0.00 41 4247.8
20260504214110 27 250 3.2 4.8 0.00 0.00 0.00 41 4247.5
20260504213110 27 46 3.2 3.2 0.00 0.00 0.00 42 4247.9
20260504212109 26 350 1.6 3.2 0.00 0.00 0.00 43 4248.0
20260504211109 27 298 6.4 11.3 0.00 0.00 0.00 42 4248.0
20260504210108 27 331 4.8 8.0 0.00 0.00 0.00 45 4248.1
20260504205103 27 249 3.2 4.8 0.00 0.00 0.00 42 4248.0
20260504204100 27 257 4.8 8.0 0.00 0.00 0.00 41 4248.2
20260504203055 27 255 4.8 4.8 0.00 0.00 0.00 43 4248.4
20260504202054 26 313 3.2 3.2 0.00 0.00 0.00 46 4248.6
20260504201048 27 281 3.2 4.8 0.00 0.00 0.00 46 4248.6
20260504200047 27 242 8.0 11.3 0.00 0.00 0.00 45 4248.8
20260504195046 27 295 3.2 3.2 0.00 0.00 0.00 48 4249.0
20260504194043 27 246 9.7 11.3 0.00 0.00 0.00 42 4249.3
20260504193039 27 322 3.2 4.8 0.00 0.00 0.00 44 4249.0
20260504192035 27 1 4.8 8.0 0.00 0.00 0.00 44 4249.2
20260504191034 27 342 3.2 3.2 0.00 0.00 0.00 46 4249.5
20260504190032 27 270 4.8 4.8 0.00 0.00 0.00 45 4249.7
20260504185032 27 264 8.0 9.7 0.00 0.00 0.00 44 4249.7
20260504184028 26 282 4.8 8.0 0.00 0.00 0.00 46 4249.6
20260504183024 26 272 3.2 3.2 0.00 0.00 0.00 47 4249.6
20260504182024 26 275 4.8 4.8 0.00 0.00 0.00 50 4249.7
20260504181019 26 255 4.8 4.8 0.00 0.00 0.00 48 4250.0
20260504180016 25 214 4.8 4.8 0.00 0.00 0.00 48 4250.2
20260504175016 26 252 6.4 8.0 0.00 0.00 0.00 47 4250.1
20260504174016 26 254 6.4 8.0 0.00 0.00 0.00 51 4250.1
20260504173016 25 158 6.4 9.7 0.00 0.00 0.00 50 4250.4
20260504172014 25 267 4.8 8.0 0.00 0.00 0.00 49 4250.7
20260504171014 25 23 1.6 3.2 0.00 0.00 0.00 52 4250.7
20260504150952 22 238 3.2 3.2 0.00 0.00 0.00 58 4251.8
20260504140950 20 248 1.6 4.8 0.00 0.00 0.00 64 4252.3
20260504081840 13 250 1.6 3.2 0.00 0.00 0.00 73 4251.2
20260504080838 13 241 3.2 4.8 0.00 0.00 0.00 73 4251.1
20260504045808 13 214 1.6 1.6 0.00 0.00 0.00 72 4253.0
20260504044805 13 189 1.6 3.2 0.00 0.00 0.00 73 4252.9
20260504043800 13 209 0.0 0.0 0.00 0.00 0.00 72 4253.2
20260504042755 13 224 3.2 3.2 0.00 0.00 0.00 73 4252.9
20260504041753 13 229 3.2 3.2 0.00 0.00 0.00 73 4253.3
20260504040751 13 225 3.2 3.2 0.00 0.00 0.00 75 4253.3
20260504035750 13 230 1.6 1.6 0.00 0.00 0.00 75 4253.4
20260504034745 13 213 0.0 1.6 0.00 0.00 0.00 75 4253.4
20260504033745 13 211 3.2 3.2 0.00 0.00 0.00 76 4253.3
20260504032745 13 173 0.0 0.0 0.00 0.00 0.00 76 4253.3
20260504031745 13 226 3.2 3.2 0.00 0.00 0.00 76 4253.6
20260504030744 12 209 1.6 1.6 0.00 0.00 0.00 80 4253.6
20260504025744 13 193 0.0 0.0 0.00 0.00 0.00 78 4253.6
20260504024744 13 192 0.0 0.0 0.00 0.00 0.00 77 4253.7
20260504023743 13 194 0.0 0.0 0.00 0.00 0.00 76 4253.5
20260504022741 13 194 0.0 0.0 0.00 0.00 0.00 74 4253.6
20260504021740 14 195 0.0 0.0 0.00 0.00 0.00 73 4253.5
20260504020740 14 195 0.0 1.6 0.00 0.00 0.00 73 4253.4
20260504015739 15 183 0.0 0.0 0.00 0.00 0.00 70 4253.5
20260504014737 15 195 1.6 1.6 0.00 0.00 0.00 68 4253.3
20260504013737 15 204 1.6 3.2 0.00 0.00 0.00 67 4253.0
20260504012737 15 200 1.6 1.6 0.00 0.00 0.00 66 4252.8
20260504011737 16 193 0.0 0.0 0.00 0.00 0.00 63 4252.9
20260504010736 16 249 0.0 1.6 0.00 0.00 0.00 61 4252.9
20260504005735 16 264 0.0 1.6 0.00 0.00 0.00 61 4252.8
20260504004735 17 243 1.6 1.6 0.00 0.00 0.00 59 4252.8
20260504003735 17 250 0.0 1.6 0.00 0.00 0.00 59 4252.7
20260504002734 17 254 0.0 0.0 0.00 0.00 0.00 56 4252.8
20260504001729 18 265 0.0 0.0 0.00 0.00 0.00 54 4252.6
20260504000728 18 256 1.6 1.6 0.00 0.00 0.00 52 4253.0
20260503235723 19 251 0.0 0.0 0.00 0.00 0.00 49 4253.0